[[[{"header":{"parameterUnit":"kt","parameterCategory":2,"dx":1,"dy":1,"la1":30.253999710083008,"la2":30.299108505249023,"lo1":-89.0895004272461,"lo2":-89.04439544677734,"nx":28,"ny":28,"refTime":"2022-10-31T21:00:00:Z","depth":0,"parameterNumber":1,"parameterNumberName":"U-component_of_WINDS"},"data":[-5.1486,-5.1514,-5.1487,-5.1508,-5.1487,-5.1499,-5.1494,-5.1487,-5.1473,-5.1488,-5.1492,-5.1468,-5.1447,-5.1449,-5.1455,-5.1445,-5.1453,-5.1487,-5.1471,-5.1338,-5.1318,-5.1299,-5.1291,-5.1487,-5.1487,-5.1615,-5.1616,-5.1617,-5.1407,-5.1385,-5.1385,-5.1366,-5.1369,-5.132,-5.1302,-5.1309,-5.1321,-5.1303,-5.1303,-5.1314,-5.1319,-5.1284,-5.1286,-5.1306,-5.1285,-5.1309,-5.1311,-5.131,-5.1165,-5.1156,-5.1327,-5.1327,-5.1327,-5.1327,-5.1327,-5.1327,-5.1256,-5.1272,-5.1242,-5.1241,-5.1223,-5.1211,-5.1224,-5.119,-5.1192,-5.1184,-5.1147,-5.1162,-5.114,-5.1124,-5.1112,-5.1126,-5.1094,-5.1113,-5.1119,-5.1126,-5.1141,-5.0978,-5.1124,-5.1123,-5.1122,-5.1122,-5.1122,0,-5.1137,-5.1111,-5.1105,-5.1094,-5.1091,-5.1078,-5.1062,-5.1068,-5.1001,-5.1005,-5.1009,-5.1007,-5.1004,-5.1008,-5.1,-5.0982,-5.0935,-5.0923,-5.0938,-5.096,-5.0985,-5.0981,-5.0755,-5.092,-5.0918,-5.0917,-5.0916,-5.0915,-5.0989,-5.1007,-5.0956,-5.0958,-5.0939,-5.0941,-5.0937,-5.0874,-5.0873,-5.0845,-5.0864,-5.0863,-5.086,-5.0873,-5.0835,-5.0833,-5.0811,-5.0879,-5.081,-5.0833,-5.0822,-5.0824,-5.0831,-5.0895,-5.0898,-5.09,-5.0901,0,-5.091,-5.0855,-5.0873,-5.0819,-5.0807,-5.0831,-5.0787,-5.0801,-5.0763,-5.0778,-5.0778,-5.0721,-5.0726,-5.0675,-5.0669,-5.0643,-5.0698,-5.0671,-5.0709,-5.0703,-5.0765,-5.0763,-5.0956,-5.0982,-5.077,-5.0772,-5.0773,0,-5.0765,-5.079,-5.0708,-5.0721,-5.075,-5.0682,-5.0714,-5.0684,-5.0657,-5.0667,-5.0599,-5.0611,-5.054,-5.0547,-5.0508,-5.0541,-5.0537,-5.0522,-5.0512,-5.0531,-5.0535,-5.0535,-5.0529,-5.0478,-5.0477,-5.0476,-5.0476,0,-5.0652,-5.0632,-5.0651,-5.0638,-5.0581,-5.0593,-5.057,-5.0536,-5.0531,-5.0516,-5.0514,-5.0501,-5.0496,-5.049,-5.044,-5.0396,-5.0475,-5.0405,-5.0461,-5.0463,-5.0484,-5.0484,-5.0664,-5.0475,-5.0474,-5.0474,-5.0474,0,-5.0526,-5.0506,-5.0539,-5.0491,-5.0489,-5.05,-5.0482,-5.0478,-5.0448,-5.0422,-5.0409,-5.0357,-5.0373,-5.0309,-5.0335,-5.0294,-5.0295,-5.0279,-5.0282,-5.0284,-5.0216,-5.0333,-5.0503,-5.0523,-5.0285,-5.0283,-5.0282,0,-5.0418,-5.0431,-5.0371,-5.0403,-5.0403,-5.0326,-5.0338,-5.031,-5.0275,-5.0273,-5.0235,-5.0233,-5.0172,-5.0164,-5.0183,-5.0146,-5.0199,-5.0136,-5.0147,-5.0148,-5.0164,-5.0319,-5.036,-5.0471,-5.026,-5.0262,-5.0264,0,-5.0325,-5.0246,-5.0255,-5.0239,-5.0184,-5.0181,-5.0193,-5.0173,-5.0176,-5.0146,-5.016,-5.0149,-5.0107,-5.0092,-5.0046,-5.0069,-5.0161,-5.0018,-5.0017,-5.0053,-5.0241,-5.0282,-5.0301,-5.0127,-5.013,-5.0132,-5.0247,0,-5.0162,-5.0157,-5.0176,-5.0133,-5.012,-5.0132,-5.0068,-5.0064,-5.0021,-4.9982,-4.9996,-4.9953,-4.9933,-4.9935,-4.9891,-4.9956,-4.9938,-4.9889,-4.9825,-4.9924,-4.9962,-4.9976,-4.9776,-4.9774,-4.9772,-4.977,0,0,-5.0075,-5.0065,-4.9993,-4.9997,-4.9983,-4.9898,-4.9919,-4.9894,-4.9846,-4.9841,-4.9803,-4.9783,-4.9749,-4.9774,-4.9799,-4.9787,-4.9796,-4.9761,-4.9876,-4.9888,-4.9899,-4.994,-4.9955,-4.9767,-4.9766,-4.9765,-4.9765,0,-5.0002,-4.9961,-4.9978,-4.9949,-4.9902,-4.9856,-4.9861,-4.9799,-4.9775,-4.9781,-4.9714,-4.9713,-4.9693,-4.9671,-4.9657,-4.9756,-4.9707,-4.9753,-4.9831,-4.9858,-4.9873,-4.9886,-4.9929,-4.9945,-4.976,-4.976,-4.9761,0,-4.9904,-4.9856,-4.9854,-4.9808,-4.9776,-4.9774,-4.9691,-4.9688,-4.9687,-4.9594,-4.9602,-4.957,-4.953,-4.9556,-4.9564,-4.9531,-4.9631,-4.9583,-4.9593,-4.9594,-4.9618,-4.9635,-4.9651,-4.9446,-4.9446,-4.9445,0,0,-4.985,-4.984,-4.9767,-4.9787,-4.9772,-4.9702,-4.9692,-4.9646,-4.9608,-4.9594,-4.9549,-4.9518,-4.9507,-4.9501,-4.9486,-4.9522,-4.9513,-4.9547,-4.9562,-4.9574,-4.9582,-4.9609,-4.9626,-4.9442,-4.9442,-4.9442,0,0,-4.9824,-4.9738,-4.9698,-4.9712,-4.9679,-4.9608,-4.9625,-4.9576,-4.9554,-4.9545,-4.9468,-4.9456,-4.9478,-4.9447,-4.9414,-4.9464,-4.9401,-4.9407,-4.9483,-4.95,-4.9515,-4.9524,-4.9323,0,0,0,0,0,-4.9713,-4.9749,-4.9714,-4.9706,-4.9645,-4.9628,-4.962,-4.9555,-4.9514,-4.953,-4.9486,-4.9429,-4.9415,-4.9383,-4.9378,-4.9417,-4.9402,-4.9409,-4.9416,-4.9521,-4.954,-4.9556,0,0,0,0,0,0,-4.9709,-4.9699,-4.9713,-4.9644,-4.963,-4.9625,-4.9542,-4.9526,-4.9511,-4.95,-4.944,-4.9428,-4.9374,-4.9381,-4.9378,-4.9416,-4.9324,-4.9405,-4.9411,-4.9416,-4.9527,-4.9543,-4.9557,0,0,0,0,0,-4.9706,-4.9698,-4.9616,-4.9643,-4.9631,-4.9554,-4.954,-4.9526,-4.9513,-4.9442,-4.9427,-4.9465,-4.9376,-4.9369,-4.9379,-4.9419,-4.9326,-4.9325,-4.9409,-4.9413,-4.9417,-4.9535,0,0,0,0,0,0,-4.9703,-4.9685,-4.9612,-4.9606,-4.9623,-4.9553,-4.9539,-4.9526,-4.9454,-4.9441,-4.9463,-4.9456,-4.9379,-4.9372,-4.9367,-4.9424,-4.9328,-4.9327,-4.9326,-4.9412,-4.9416,-4.9419,0,0,0,0,0,0,-4.9689,-4.9681,-4.9609,-4.9586,-4.9577,-4.9552,-4.954,-4.9538,-4.9455,-4.948,-4.9471,-4.9461,-4.9388,-4.9375,-4.9371,-4.9369,-4.9329,-4.9328,-4.9327,-4.9327,-4.9415,-4.9418,0,0,0,0,0,0,-4.9685,-4.9677,-4.9587,-4.958,-4.9572,-4.95,-4.9549,-4.9491,-4.9433,-4.9484,-4.9427,-4.9423,-4.9392,-4.9386,-4.9374,-4.9375,-4.9371,-4.9329,-4.9328,-4.9328,-4.9327,0,0,0,0,0,0,0,-4.9681,-4.9744,-4.9647,-4.9576,-4.9568,-4.955,-4.9548,-4.9547,-4.9433,-4.943,-4.9427,-4.9425,-4.9335,-4.9334,-4.9333,-4.9379,0,0,-4.9329,-4.9328,0,0,0,0,0,0,0,0,-4.9745,-4.9744,-4.9647,-4.9646,-4.9644,-4.955,-4.9548,-4.9547,-4.9432,-4.943,-4.9428,-4.9426,-4.9335,-4.9334,-4.9333,0,0,0,0,0,0,0,0,0,0,0,0,0,0,0,-4.9647,-4.9646,0,-4.955,-4.9548,-4.9547,-4.9432,-4.943,-4.9428,-4.9427,-4.9334,-4.9334,-4.9333,0,0,0,0,0,0,0,0,0,0,0,0,0,0,0,0,0,0,0,0,0,0,0,0,0,0,0,0,0,0,0,0,0,0,0,0,0,0,0,0,0,0,0,0,0,0,0,0,0,0,0,0,0,0,0,0,0,0,0,0,0,0,0,0,0,0,0,0,0]}],[{"header":{"parameterUnit":"kt","parameterCategory":2,"dx":1,"dy":1,"la1":30.253999710083008,"la2":30.299108505249023,"lo1":-89.0895004272461,"lo2":-89.04439544677734,"nx":28,"ny":28,"refTime":"2022-10-31T21:00:00:Z","depth":0,"parameterNumber":2,"parameterNumberName":"V-component_of_WINDS"},"data":[-0.5291,-0.5331,-0.5343,-0.5396,-0.5416,-0.5456,-0.5474,-0.5501,-0.5526,-0.5577,-0.561,-0.5629,-0.5663,-0.5708,-0.5747,-0.5756,-0.5773,-0.5777,-0.5788,-0.575,-0.5746,-0.5742,-0.5733,-0.578,-0.578,-0.5825,-0.5826,-0.5826,-0.5267,-0.5287,-0.5317,-0.5355,-0.5383,-0.5386,-0.5418,-0.5442,-0.5478,-0.5509,-0.5541,-0.5588,-0.5629,-0.5661,-0.5703,-0.5727,-0.5733,-0.5738,-0.5738,-0.5744,-0.5704,-0.5694,-0.5732,-0.5732,-0.5732,-0.5732,-0.5732,-0.5732,-0.5226,-0.5248,-0.5278,-0.5311,-0.5334,-0.5361,-0.5386,-0.5408,-0.544,-0.5482,-0.5492,-0.5535,-0.557,-0.5628,-0.5652,-0.5688,-0.5686,-0.5697,-0.5701,-0.5704,-0.5706,-0.5644,-0.5696,-0.5696,-0.5696,-0.5696,-0.5696,0,-0.52,-0.5209,-0.5238,-0.5272,-0.5297,-0.5324,-0.5353,-0.5369,-0.5395,-0.542,-0.5459,-0.5485,-0.5536,-0.5577,-0.562,-0.5643,-0.5654,-0.5655,-0.5663,-0.566,-0.5652,-0.5661,-0.5597,-0.5654,-0.5654,-0.5654,-0.5653,-0.5653,-0.5162,-0.5186,-0.5222,-0.5242,-0.5259,-0.529,-0.5312,-0.5332,-0.5355,-0.5395,-0.5415,-0.5455,-0.5488,-0.5551,-0.558,-0.562,-0.5626,-0.5647,-0.5633,-0.5628,-0.5631,-0.5631,-0.5635,-0.565,-0.5651,-0.5651,-0.5651,0,-0.5141,-0.516,-0.52,-0.5235,-0.5245,-0.5269,-0.5301,-0.5325,-0.5344,-0.5381,-0.5391,-0.5422,-0.5461,-0.5486,-0.5537,-0.555,-0.5599,-0.5602,-0.5588,-0.5591,-0.5614,-0.5613,-0.5679,-0.5691,-0.5639,-0.564,-0.564,0,-0.5117,-0.5147,-0.5175,-0.5198,-0.5233,-0.5251,-0.5287,-0.5306,-0.5334,-0.5363,-0.5376,-0.5404,-0.5431,-0.5464,-0.5483,-0.5527,-0.5535,-0.5549,-0.5554,-0.555,-0.5548,-0.5566,-0.5565,-0.5561,-0.556,-0.556,-0.556,0,-0.5083,-0.5132,-0.5168,-0.5182,-0.5222,-0.524,-0.5258,-0.5289,-0.531,-0.5342,-0.5357,-0.5394,-0.5415,-0.5445,-0.5468,-0.5458,-0.5521,-0.5512,-0.5536,-0.5536,-0.5551,-0.555,-0.56,-0.5559,-0.5559,-0.5559,-0.5559,0,-0.5068,-0.5095,-0.5143,-0.5177,-0.519,-0.5214,-0.525,-0.5275,-0.5308,-0.532,-0.5346,-0.5358,-0.5395,-0.5385,-0.5439,-0.5419,-0.544,-0.5456,-0.5458,-0.5465,-0.5454,-0.5482,-0.5524,-0.5531,-0.547,-0.5469,-0.5468,0,-0.5025,-0.5077,-0.5092,-0.5139,-0.5167,-0.5178,-0.5206,-0.5233,-0.5251,-0.528,-0.5301,-0.5334,-0.5331,-0.5346,-0.5368,-0.5393,-0.5419,-0.539,-0.5439,-0.5441,-0.5432,-0.547,-0.5471,-0.5511,-0.5459,-0.546,-0.546,0,-0.4993,-0.5038,-0.5045,-0.5063,-0.5099,-0.5122,-0.5153,-0.5189,-0.5207,-0.5235,-0.5265,-0.5311,-0.5312,-0.5335,-0.5348,-0.5371,-0.5402,-0.5369,-0.5371,-0.5377,-0.5455,-0.5456,-0.5463,-0.5407,-0.5408,-0.5409,-0.5453,0,-0.4971,-0.4999,-0.5017,-0.5054,-0.5075,-0.5104,-0.5126,-0.5146,-0.5156,-0.5174,-0.5216,-0.5245,-0.5284,-0.5297,-0.5307,-0.5349,-0.5347,-0.5347,-0.5341,-0.5364,-0.538,-0.5386,-0.5316,-0.5316,-0.5316,-0.5316,0,0,-0.4927,-0.4966,-0.4981,-0.501,-0.5029,-0.5039,-0.5069,-0.5089,-0.513,-0.5145,-0.514,-0.521,-0.5234,-0.5284,-0.5292,-0.5307,-0.5319,-0.5309,-0.5352,-0.5356,-0.536,-0.5376,-0.5381,-0.5316,-0.5316,-0.5316,-0.5316,0,-0.4923,-0.4941,-0.4967,-0.4988,-0.5019,-0.5035,-0.5042,-0.5075,-0.5089,-0.5128,-0.5139,-0.5167,-0.5221,-0.5246,-0.5266,-0.5302,-0.5312,-0.5312,-0.5324,-0.5351,-0.5355,-0.5358,-0.5375,-0.538,-0.5316,-0.5316,-0.5316,0,-0.4898,-0.492,-0.4935,-0.4975,-0.4996,-0.5024,-0.5022,-0.5051,-0.5073,-0.5086,-0.5125,-0.5145,-0.518,-0.5222,-0.5242,-0.5239,-0.5304,-0.5287,-0.5288,-0.5291,-0.5318,-0.5323,-0.5327,-0.5273,-0.5273,-0.5273,0,0,-0.4892,-0.4917,-0.4947,-0.4976,-0.4988,-0.5013,-0.503,-0.5041,-0.5069,-0.5081,-0.5106,-0.5135,-0.5168,-0.5189,-0.522,-0.5262,-0.5273,-0.528,-0.5282,-0.5284,-0.5288,-0.5316,-0.532,-0.5272,-0.5272,-0.5272,0,0,-0.489,-0.4926,-0.4929,-0.4964,-0.499,-0.5024,-0.5042,-0.5048,-0.5078,-0.5077,-0.51,-0.5109,-0.5149,-0.5168,-0.5152,-0.5219,-0.5212,-0.5216,-0.5205,-0.5208,-0.521,-0.5206,-0.5156,0,0,0,0,0,-0.4897,-0.4921,-0.4924,-0.4933,-0.4985,-0.5022,-0.5029,-0.5046,-0.5041,-0.5055,-0.5077,-0.5084,-0.5164,-0.5151,-0.5161,-0.5179,-0.5259,-0.5261,-0.5263,-0.5259,-0.5262,-0.5264,0,0,0,0,0,0,-0.4901,-0.4911,-0.4923,-0.4958,-0.497,-0.5021,-0.5016,-0.5022,-0.504,-0.504,-0.508,-0.5085,-0.5103,-0.5147,-0.5156,-0.5173,-0.5153,-0.526,-0.5262,-0.5264,-0.526,-0.5262,-0.5264,0,0,0,0,0,-0.4904,-0.4912,-0.499,-0.4958,-0.4968,-0.4997,-0.5015,-0.502,-0.5035,-0.5069,-0.5075,-0.5046,-0.5103,-0.5112,-0.5152,-0.5168,-0.5147,-0.5151,-0.5261,-0.5263,-0.5264,-0.5261,0,0,0,0,0,0,-0.4906,-0.4918,-0.4992,-0.4996,-0.4949,-0.4994,-0.5002,-0.5018,-0.5062,-0.5068,-0.5036,-0.5036,-0.5103,-0.511,-0.5117,-0.5166,-0.5142,-0.5146,-0.5148,-0.5262,-0.5263,-0.5265,0,0,0,0,0,0,-0.4914,-0.4921,-0.4995,-0.4983,-0.4985,-0.4992,-0.4999,-0.5036,-0.5063,-0.5028,-0.5029,-0.5036,-0.5094,-0.5109,-0.5115,-0.5171,-0.5138,-0.5142,-0.5144,-0.5145,-0.5263,-0.5264,0,0,0,0,0,0,-0.4917,-0.4924,-0.4982,-0.4984,-0.4986,-0.5032,-0.5025,-0.5078,-0.5049,-0.5026,-0.5048,-0.5047,-0.5093,-0.5099,-0.5113,-0.5167,-0.517,-0.5138,-0.5141,-0.5142,-0.5143,0,0,0,0,0,0,0,-0.492,-0.487,-0.4969,-0.4985,-0.4987,-0.5033,-0.5034,-0.5035,-0.5049,-0.5048,-0.5048,-0.5047,-0.512,-0.5123,-0.5127,-0.5164,0,0,-0.5138,-0.514,0,0,0,0,0,0,0,0,-0.4868,-0.487,-0.4969,-0.497,-0.497,-0.5033,-0.5034,-0.5035,-0.5049,-0.5048,-0.5048,-0.5047,-0.5121,-0.5124,-0.5127,0,0,0,0,0,0,0,0,0,0,0,0,0,0,0,-0.4969,-0.497,0,-0.5033,-0.5034,-0.5034,-0.5049,-0.5048,-0.5048,-0.5048,-0.5122,-0.5124,-0.5126,0,0,0,0,0,0,0,0,0,0,0,0,0,0,0,0,0,0,0,0,0,0,0,0,0,0,0,0,0,0,0,0,0,0,0,0,0,0,0,0,0,0,0,0,0,0,0,0,0,0,0,0,0,0,0,0,0,0,0,0,0,0,0,0,0,0,0,0,0]}]]]